CZ-6A DEB, 61088

Orbit data source: Space-Track

CZ-6A DEB, 61088 is space debris in LEO originally from a launch on Tue, 06 Aug 2024 UTC launched from the Taiyaun Space Center, China (TSC). Debris objects in space refer to the collection of defunct objects orbiting the Earth. Examples of debris include non-operational satellites, rocket bodies, and fragments generated from explosions, collisions, or faulty payload assembly.

Loading next visibility...
Identifier
61088, 2024-140NE
Orbit
LEO
Country
Flag of CNCN / PRC
Related business
Manufacturer
SAST
Mission
Spacecraft
Bus & Motor
Unknown
Mass
Unknown
Launch date (UTC)
2024-08-06 (2 years ago)
Launch vehicle
Unknown
Launch site
Taiyaun Space Center, China (TSC)
Object type
Payload
Rocket body
Debris
Shape & HBR
Unknown shape, 0.2 m
Radar Cross Section
Medium (>0.1 m² and <1 m²)

Expand to show TLE details & history
Last TLE update: 13 hours ago

TLE from 13 hours ago
0 CZ-6A DEB
1 61088U 24140NE  26171.31174146  .00000750  00000-0  32896-3 0  9991
2 61088  88.9840 272.7668 0039950 160.5346 199.7381 14.22199379 94043
Epoch: 2026-06-20T07:28Z
TLE epoch observation values (Epoch: 2026-06-20T07:28:54.462Z)
Latitude
-0.0001°
Longitude
-107.98831°
Altitude
848.059 km
Speed
7.415 km/s
True Right ascension
18h 11m 04s
True Declination
0° 00' 00"
Sunlit
Object was in full shadow at epoch
Visualization orbit readout
Latitude
Unknown
Longitude
Unknown
Altitude
Unknown
Speed
Unknown
Apparent Right ascension
Unknown
Apparent Declination
Unknown
Sunlit
N/A
Visualization observer readout
Local Sidereal Time
07:24:27
Azimuth
Unknown
Elevation
Unknown
Doppler factor
Unknown
Orbital elements
Apogee altitude
843.608 km
Perigee altitude
786.136 km
Semi-major axis
7,193.009 km
Eccentricity
0.004
Inclination
88.984°
RAAN
272.7668°
Arg. of periapsis
160.5346°
True anomaly
199.58422°
Mean anomaly
199.7381°
Eccentric anomaly
199.66109°
Mean motion
3.55776 °/min
Orbital period
101.19 mins
BSTAR
0.00032896
Loading maneuver chart data...
Computing Atmospheric mass density...
Loading historical data...
Loading historical data...
Loading historical data...
Loading historical data...
Loading historical data...
Loading historical data...
Loading historical data...

Documentation

Showing up to 5 results
|